owner,sensor,date,latitude,longitude,vertical_datum,wind_speed,wind_to_direction,wind_speed_of_gust,qcFlag 
LUMCON,ioos:station:LUMCON:103:1,2006-11-01T16:00:00Z,30.1889,-90.1683,1.0,2.6,100.0,4.1,'11111222,11111222,11111222' 
LUMCON,ioos:station:LUMCON:103:1,2006-11-01T17:00:00Z,30.1889,-90.1683,1.0,3.1,100.0,4.1,'11111222,11111222,11111222' 
LUMCON,ioos:station:LUMCON:103:1,2006-11-01T18:00:00Z,30.1889,-90.1683,1.0,3.1,100.0,4.6,'11111222,11111222,11111222' 
LUMCON,ioos:station:LUMCON:103:1,2006-11-01T19:00:00Z,30.1889,-90.1683,1.0,3.1,110.0,4.6,'11111222,11111222,11111222' 
LUMCON,ioos:station:LUMCON:103:1,2006-11-01T20:00:00Z,30.1889,-90.1683,1.0,3.1,140.0,3.6,'11111222,11111222,11111222' 
LUMCON,ioos:station:LUMCON:103:1,2006-11-01T21:00:00Z,30.1889,-90.1683,1.0,3.6,130.0,4.6,'11111222,11111222,11111222' 
LUMCON,ioos:station:LUMCON:103:1,2006-11-01T22:00:00Z,30.1889,-90.1683,1.0,2.1,150.0,4.1,'11111222,11111222,11111222' 
LUMCON,ioos:station:LUMCON:103:1,2006-11-01T23:00:00Z,30.1889,-90.1683,1.0,1.0,160.0,2.6,'11111222,11111222,11111222' 
LUMCON,ioos:station:LUMCON:103:1,2006-11-02T00:00:00Z,30.1889,-90.1683,1.0,1.5,70.0,2.6,'11111222,11111222,11111222' 
LUMCON,ioos:station:LUMCON:103:1,2006-11-02T01:00:00Z,30.1889,-90.1683,1.0,4.6,50.0,8.8,'11111222,11111222,11111222' 
LUMCON,ioos:station:LUMCON:103:1,2006-11-02T02:00:00Z,30.1889,-90.1683,1.0,3.1,300.0,7.7,'11111222,11111222,11111222' 
LUMCON,ioos:station:LUMCON:103:1,2006-11-02T03:00:00Z,30.1889,-90.1683,1.0,2.6,340.0,4.6,'11111222,11111222,11111222' 
LUMCON,ioos:station:LUMCON:103:1,2006-11-02T04:00:00Z,30.1889,-90.1683,1.0,2.6,350.0,3.6,'11111222,11111222,11111222' 
LUMCON,ioos:station:LUMCON:103:1,2006-11-02T05:00:00Z,30.1889,-90.1683,1.0,4.1,0.0,6.7,'11111222,11111222,11111222' 
LUMCON,ioos:station:LUMCON:103:1,2006-11-02T06:00:00Z,30.1889,-90.1683,1.0,4.1,10.0,6.2,'11111222,11111222,11111222' 
LUMCON,ioos:station:LUMCON:103:1,2006-11-02T07:00:00Z,30.1889,-90.1683,1.0,4.6,350.0,7.2,'11111222,11111222,11111222' 
LUMCON,ioos:station:LUMCON:103:1,2006-11-02T08:00:00Z,30.1889,-90.1683,1.0,5.7,350.0,7.7,'11111222,11111222,11111222' 
LUMCON,ioos:station:LUMCON:103:1,2006-11-02T09:00:00Z,30.1889,-90.1683,1.0,7.2,350.0,9.8,'11111222,11111222,11111222' 
LUMCON,ioos:station:LUMCON:103:1,2006-11-02T10:00:00Z,30.1889,-90.1683,1.0,6.7,350.0,8.2,'11111222,11111222,11111222' 
LUMCON,ioos:station:LUMCON:103:1,2006-11-02T11:00:00Z,30.1889,-90.1683,1.0,6.2,350.0,9.3,'11111222,11111222,11111222' 
LUMCON,ioos:station:LUMCON:103:1,2006-11-02T12:00:00Z,30.1889,-90.1683,1.0,7.7,330.0,9.8,'11111222,11111222,11111222' 
LUMCON,ioos:station:LUMCON:103:1,2006-11-02T13:00:00Z,30.1889,-90.1683,1.0,8.2,360.0,9.8,'11111222,11144222,11111222' 
LUMCON,ioos:station:LUMCON:103:1,2006-11-02T14:00:00Z,30.1889,-90.1683,1.0,7.2,360.0,9.8,'11111222,11144222,11111222' 
LUMCON,ioos:station:LUMCON:103:1,2006-11-02T15:00:00Z,30.1889,-90.1683,1.0,8.8,360.0,9.8,'11111222,11144222,11111222' 
LUMCON,ioos:station:LUMCON:103:1,2006-11-02T16:00:00Z,30.1889,-90.1683,1.0,8.8,0.0,9.8,'11111222,11111222,11111222' 
LUMCON,ioos:station:LUMCON:103:1,2006-11-02T17:00:00Z,30.1889,-90.1683,1.0,8.2,10.0,9.3,'11111222,11111222,11111222' 
LUMCON,ioos:station:LUMCON:103:1,2006-11-02T18:00:00Z,30.1889,-90.1683,1.0,8.2,360.0,9.8,'11111222,11144222,11111222' 
LUMCON,ioos:station:LUMCON:103:1,2006-11-02T19:00:00Z,30.1889,-90.1683,1.0,7.7,350.0,9.8,'11111222,11111222,11111222' 
LUMCON,ioos:station:LUMCON:103:1,2006-11-02T20:00:00Z,30.1889,-90.1683,1.0,8.2,10.0,9.8,'11111222,11111222,11111222' 
LUMCON,ioos:station:LUMCON:103:1,2006-11-02T21:00:00Z,30.1889,-90.1683,1.0,8.2,360.0,9.8,'11111222,11144222,11111222' 
LUMCON,ioos:station:LUMCON:103:1,2006-11-02T22:00:00Z,30.1889,-90.1683,1.0,8.2,20.0,9.8,'11111222,11111222,11111222' 
LUMCON,ioos:station:LUMCON:103:1,2006-11-02T23:00:00Z,30.1889,-90.1683,1.0,8.2,10.0,9.8,'11111222,11111222,11111222' 
LUMCON,ioos:station:LUMCON:103:1,2006-11-03T00:00:00Z,30.1889,-90.1683,1.0,7.2,0.0,9.3,'11111222,11111222,11111222' 
LUMCON,ioos:station:LUMCON:103:1,2006-11-03T01:00:00Z,30.1889,-90.1683,1.0,6.7,0.0,9.3,'11111222,11111222,11111222' 
LUMCON,ioos:station:LUMCON:103:1,2006-11-03T02:00:00Z,30.1889,-90.1683,1.0,6.7,0.0,9.3,'11111222,11111222,11111222' 
LUMCON,ioos:station:LUMCON:103:1,2006-11-03T03:00:00Z,30.1889,-90.1683,1.0,7.7,10.0,9.8,'11111222,11111222,11111222' 
LUMCON,ioos:station:LUMCON:103:1,2006-11-03T04:00:00Z,30.1889,-90.1683,1.0,8.8,40.0,9.8,'11111222,11111222,11111222' 
LUMCON,ioos:station:LUMCON:103:1,2006-11-03T05:00:00Z,30.1889,-90.1683,1.0,6.7,20.0,9.3,'11111222,11111222,11111222' 
LUMCON,ioos:station:LUMCON:103:1,2006-11-03T06:00:00Z,30.1889,-90.1683,1.0,9.3,20.0,9.8,'11111222,11111222,11111222' 
LUMCON,ioos:station:LUMCON:103:1,2006-11-03T07:00:00Z,30.1889,-90.1683,1.0,8.8,20.0,9.8,'11111222,11111222,11111222' 
LUMCON,ioos:station:LUMCON:103:1,2006-11-03T08:00:00Z,30.1889,-90.1683,1.0,8.8,20.0,9.8,'11111222,11111222,11111222' 
LUMCON,ioos:station:LUMCON:103:1,2006-11-03T09:00:00Z,30.1889,-90.1683,1.0,8.8,20.0,9.8,'11111222,11111222,11111222' 
LUMCON,ioos:station:LUMCON:103:1,2006-11-03T10:00:00Z,30.1889,-90.1683,1.0,8.8,20.0,9.8,'11111222,11111222,11111222' 
LUMCON,ioos:station:LUMCON:103:1,2006-11-03T11:00:00Z,30.1889,-90.1683,1.0,8.2,30.0,9.8,'11111222,11111222,11111222' 
LUMCON,ioos:station:LUMCON:103:1,2006-11-03T12:00:00Z,30.1889,-90.1683,1.0,6.7,30.0,9.8,'11111222,11111222,11111222' 
LUMCON,ioos:station:LUMCON:103:1,2006-11-03T13:00:00Z,30.1889,-90.1683,1.0,7.2,30.0,9.3,'11111222,11111222,11111222' 
LUMCON,ioos:station:LUMCON:103:1,2006-11-03T14:00:00Z,30.1889,-90.1683,1.0,7.7,40.0,9.8,'11111222,11111222,11111222' 
LUMCON,ioos:station:LUMCON:103:1,2006-11-03T15:00:00Z,30.1889,-90.1683,1.0,7.2,30.0,9.3,'11111222,11111222,11111222' 
LUMCON,ioos:station:LUMCON:103:1,2006-11-03T16:00:00Z,30.1889,-90.1683,1.0,7.7,30.0,9.8,'11111222,11111222,11111222' 
LUMCON,ioos:station:LUMCON:103:1,2006-11-03T17:00:00Z,30.1889,-90.1683,1.0,6.7,30.0,9.8,'11111222,11111222,11111222' 
LUMCON,ioos:station:LUMCON:103:1,2006-11-03T19:00:00Z,30.1889,-90.1683,1.0,6.7,30.0,9.8,'11111222,11111222,11111222' 
LUMCON,ioos:station:LUMCON:103:1,2006-11-03T20:00:00Z,30.1889,-90.1683,1.0,6.2,30.0,9.3,'11111222,11111222,11111222' 
LUMCON,ioos:station:LUMCON:103:1,2006-11-03T21:00:00Z,30.1889,-90.1683,1.0,5.7,10.0,8.8,'11111222,11111222,11111222' 
LUMCON,ioos:station:LUMCON:103:1,2006-11-03T22:00:00Z,30.1889,-90.1683,1.0,6.2,30.0,8.2,'11111222,11111222,11111222' 
LUMCON,ioos:station:LUMCON:103:1,2006-11-03T23:00:00Z,30.1889,-90.1683,1.0,5.7,20.0,7.2,'11111222,11111222,11111222' 
LUMCON,ioos:station:LUMCON:103:1,2006-11-04T00:00:00Z,30.1889,-90.1683,1.0,5.1,20.0,6.2,'11111222,11111222,11111222' 
LUMCON,ioos:station:LUMCON:103:1,2006-11-04T01:00:00Z,30.1889,-90.1683,1.0,5.1,30.0,8.8,'11111222,11111222,11111222' 
LUMCON,ioos:station:LUMCON:103:1,2006-11-04T02:00:00Z,30.1889,-90.1683,1.0,6.2,40.0,9.8,'11111222,11111222,11111222' 
LUMCON,ioos:station:LUMCON:103:1,2006-11-04T03:00:00Z,30.1889,-90.1683,1.0,6.7,40.0,9.8,'11111222,11111222,11111222' 
LUMCON,ioos:station:LUMCON:103:1,2006-11-04T04:00:00Z,30.1889,-90.1683,1.0,7.2,50.0,9.8,'11111222,11111222,11111222' 
LUMCON,ioos:station:LUMCON:103:1,2006-11-04T05:00:00Z,30.1889,-90.1683,1.0,7.2,40.0,9.8,'11111222,11111222,11111222' 
LUMCON,ioos:station:LUMCON:103:1,2006-11-04T06:00:00Z,30.1889,-90.1683,1.0,7.2,50.0,9.8,'11111222,11111222,11111222' 
LUMCON,ioos:station:LUMCON:103:1,2006-11-04T07:00:00Z,30.1889,-90.1683,1.0,7.2,50.0,9.8,'11111222,11111222,11111222' 
LUMCON,ioos:station:LUMCON:103:1,2006-11-04T08:00:00Z,30.1889,-90.1683,1.0,6.7,50.0,9.3,'11111222,11111222,11111222' 
LUMCON,ioos:station:LUMCON:103:1,2006-11-04T09:00:00Z,30.1889,-90.1683,1.0,6.7,40.0,9.8,'11111222,11111222,11111222' 
LUMCON,ioos:station:LUMCON:103:1,2006-11-04T10:00:00Z,30.1889,-90.1683,1.0,6.7,40.0,9.8,'11111222,11111222,11111222' 
LUMCON,ioos:station:LUMCON:103:1,2006-11-04T11:00:00Z,30.1889,-90.1683,1.0,6.2,40.0,9.3,'11111222,11111222,11111222' 
LUMCON,ioos:station:LUMCON:103:1,2006-11-04T12:00:00Z,30.1889,-90.1683,1.0,5.7,30.0,9.3,'11111222,11111222,11111222' 
LUMCON,ioos:station:LUMCON:103:1,2006-11-04T13:00:00Z,30.1889,-90.1683,1.0,6.7,30.0,8.8,'11111222,11111222,11111222' 
LUMCON,ioos:station:LUMCON:103:1,2006-11-04T14:00:00Z,30.1889,-90.1683,1.0,6.2,40.0,8.2,'11111222,11111222,11111222' 
LUMCON,ioos:station:LUMCON:103:1,2006-11-04T15:00:00Z,30.1889,-90.1683,1.0,5.7,40.0,9.3,'11111222,11111222,11111222' 
LUMCON,ioos:station:LUMCON:103:1,2006-11-04T16:00:00Z,30.1889,-90.1683,1.0,5.7,50.0,9.3,'11111222,11111222,11111222' 
LUMCON,ioos:station:LUMCON:103:1,2006-11-04T17:00:00Z,30.1889,-90.1683,1.0,5.1,60.0,9.3,'11111222,11111222,11111222' 
LUMCON,ioos:station:LUMCON:103:1,2006-11-04T18:00:00Z,30.1889,-90.1683,1.0,4.6,60.0,9.3,'11111222,11111222,11111222' 
LUMCON,ioos:station:LUMCON:103:1,2006-11-04T19:00:00Z,30.1889,-90.1683,1.0,4.1,90.0,9.3,'11111222,11111222,11111222' 
LUMCON,ioos:station:LUMCON:103:1,2006-11-04T20:00:00Z,30.1889,-90.1683,1.0,4.6,100.0,9.8,'11111222,11111222,11111222' 
LUMCON,ioos:station:LUMCON:103:1,2006-11-04T21:00:00Z,30.1889,-90.1683,1.0,4.6,90.0,9.3,'11111222,11111222,11111222' 
LUMCON,ioos:station:LUMCON:103:1,2006-11-04T22:00:00Z,30.1889,-90.1683,1.0,5.1,80.0,9.3,'11111222,11111222,11111222' 
LUMCON,ioos:station:LUMCON:103:1,2006-11-04T23:00:00Z,30.1889,-90.1683,1.0,6.2,70.0,8.2,'11111222,11111222,11111222' 
LUMCON,ioos:station:LUMCON:103:1,2006-11-05T00:00:00Z,30.1889,-90.1683,1.0,6.2,80.0,9.3,'11111222,11111222,11111222' 
LUMCON,ioos:station:LUMCON:103:1,2006-11-05T01:00:00Z,30.1889,-90.1683,1.0,6.2,70.0,8.8,'11111222,11111222,11111222' 
LUMCON,ioos:station:LUMCON:103:1,2006-11-05T02:00:00Z,30.1889,-90.1683,1.0,6.2,70.0,7.7,'11111222,11111222,11111222' 
LUMCON,ioos:station:LUMCON:103:1,2006-11-05T03:00:00Z,30.1889,-90.1683,1.0,6.7,60.0,9.3,'11111222,11111222,11111222' 
LUMCON,ioos:station:LUMCON:103:1,2006-11-05T04:00:00Z,30.1889,-90.1683,1.0,7.2,60.0,8.8,'11111222,11111222,11111222' 
LUMCON,ioos:station:LUMCON:103:1,2006-11-05T05:00:00Z,30.1889,-90.1683,1.0,7.2,60.0,9.3,'11111222,11111222,11111222' 
LUMCON,ioos:station:LUMCON:103:1,2006-11-05T06:00:00Z,30.1889,-90.1683,1.0,7.2,60.0,9.3,'11111222,11111222,11111222' 
LUMCON,ioos:station:LUMCON:103:1,2006-11-05T07:00:00Z,30.1889,-90.1683,1.0,6.2,50.0,9.3,'11111222,11111222,11111222' 
LUMCON,ioos:station:LUMCON:103:1,2006-11-05T08:00:00Z,30.1889,-90.1683,1.0,6.2,40.0,7.7,'11111222,11111222,11111222' 
LUMCON,ioos:station:LUMCON:103:1,2006-11-05T09:00:00Z,30.1889,-90.1683,1.0,5.7,40.0,7.2,'11111222,11111222,11111222' 
LUMCON,ioos:station:LUMCON:103:1,2006-11-05T10:00:00Z,30.1889,-90.1683,1.0,6.2,50.0,8.8,'11111222,11111222,11111222' 
LUMCON,ioos:station:LUMCON:103:1,2006-11-05T11:00:00Z,30.1889,-90.1683,1.0,6.7,50.0,8.8,'11111222,11111222,11111222' 
LUMCON,ioos:station:LUMCON:103:1,2006-11-05T12:00:00Z,30.1889,-90.1683,1.0,6.2,50.0,8.2,'11111222,11111222,11111222' 
LUMCON,ioos:station:LUMCON:103:1,2006-11-05T13:00:00Z,30.1889,-90.1683,1.0,6.2,50.0,8.8,'11111222,11111222,11111222' 
LUMCON,ioos:station:LUMCON:103:1,2006-11-05T14:00:00Z,30.1889,-90.1683,1.0,5.7,50.0,7.2,'11111222,11111222,11111222' 
LUMCON,ioos:station:LUMCON:103:1,2006-11-05T15:00:00Z,30.1889,-90.1683,1.0,4.6,60.0,7.2,'11111222,11111222,11111222' 
LUMCON,ioos:station:LUMCON:103:1,2006-11-05T16:00:00Z,30.1889,-90.1683,1.0,4.1,80.0,8.8,'11111222,11111222,11111222' 
LUMCON,ioos:station:LUMCON:103:1,2006-11-05T17:00:00Z,30.1889,-90.1683,1.0,3.1,90.0,8.2,'11111222,11111222,11111222' 
LUMCON,ioos:station:LUMCON:103:1,2006-11-05T18:00:00Z,30.1889,-90.1683,1.0,5.1,80.0,9.3,'11111222,11111222,11111222' 
LUMCON,ioos:station:LUMCON:103:1,2006-11-05T19:00:00Z,30.1889,-90.1683,1.0,7.2,80.0,9.8,'11111222,11111222,11111222' 
LUMCON,ioos:station:LUMCON:103:1,2006-11-05T20:00:00Z,30.1889,-90.1683,1.0,7.2,80.0,9.8,'11111222,11111222,11111222' 
LUMCON,ioos:station:LUMCON:103:1,2006-11-05T21:00:00Z,30.1889,-90.1683,1.0,6.7,80.0,9.3,'11111222,11111222,11111222' 
LUMCON,ioos:station:LUMCON:103:1,2006-11-05T22:00:00Z,30.1889,-90.1683,1.0,5.7,80.0,8.2,'11111222,11111222,11111222' 
LUMCON,ioos:station:LUMCON:103:1,2006-11-05T23:00:00Z,30.1889,-90.1683,1.0,5.1,60.0,6.7,'11111222,11111222,11111222' 
LUMCON,ioos:station:LUMCON:103:1,2006-11-06T00:00:00Z,30.1889,-90.1683,1.0,5.1,60.0,6.7,'11111222,11111222,11111222' 
LUMCON,ioos:station:LUMCON:103:1,2006-11-06T01:00:00Z,30.1889,-90.1683,1.0,5.1,60.0,6.7,'11111222,11111222,11111222' 
LUMCON,ioos:station:LUMCON:103:1,2006-11-06T02:00:00Z,30.1889,-90.1683,1.0,5.7,50.0,7.2,'11111222,11111222,11111222' 
LUMCON,ioos:station:LUMCON:103:1,2006-11-06T03:00:00Z,30.1889,-90.1683,1.0,5.7,60.0,7.7,'11111222,11111222,11111222' 
LUMCON,ioos:station:LUMCON:103:1,2006-11-06T04:00:00Z,30.1889,-90.1683,1.0,5.1,60.0,7.7,'11111222,11111222,11111222' 
LUMCON,ioos:station:LUMCON:103:1,2006-11-06T05:00:00Z,30.1889,-90.1683,1.0,4.6,60.0,6.7,'11111222,11111222,11111222' 
LUMCON,ioos:station:LUMCON:103:1,2006-11-06T06:00:00Z,30.1889,-90.1683,1.0,4.6,50.0,6.7,'11111222,11111222,11111222' 
LUMCON,ioos:station:LUMCON:103:1,2006-11-06T07:00:00Z,30.1889,-90.1683,1.0,5.1,70.0,7.7,'11111222,11111222,11111222' 
LUMCON,ioos:station:LUMCON:103:1,2006-11-06T08:00:00Z,30.1889,-90.1683,1.0,5.1,60.0,8.2,'11111222,11111222,11111222' 
LUMCON,ioos:station:LUMCON:103:1,2006-11-06T09:00:00Z,30.1889,-90.1683,1.0,4.6,70.0,7.2,'11111222,11111222,11111222' 
LUMCON,ioos:station:LUMCON:103:1,2006-11-06T10:00:00Z,30.1889,-90.1683,1.0,4.1,80.0,5.7,'11111222,11111222,11111222' 
LUMCON,ioos:station:LUMCON:103:1,2006-11-06T11:00:00Z,30.1889,-90.1683,1.0,4.1,70.0,5.7,'11111222,11111222,11111222' 
LUMCON,ioos:station:LUMCON:103:1,2006-11-06T12:00:00Z,30.1889,-90.1683,1.0,4.1,80.0,6.2,'11111222,11111222,11111222' 
LUMCON,ioos:station:LUMCON:103:1,2006-11-06T13:00:00Z,30.1889,-90.1683,1.0,4.1,70.0,6.2,'11111222,11111222,11111222' 
LUMCON,ioos:station:LUMCON:103:1,2006-11-06T14:00:00Z,30.1889,-90.1683,1.0,4.1,70.0,5.1,'11111222,11111222,11111222' 
LUMCON,ioos:station:LUMCON:103:1,2006-11-06T15:00:00Z,30.1889,-90.1683,1.0,3.1,80.0,5.7,'11111222,11111222,11111222' 
LUMCON,ioos:station:LUMCON:103:1,2006-11-06T16:00:00Z,30.1889,-90.1683,1.0,3.6,100.0,5.1,'11111222,11111222,11111222' 
LUMCON,ioos:station:LUMCON:103:1,2006-11-06T17:00:00Z,30.1889,-90.1683,1.0,4.6,110.0,6.2,'11111222,11111222,11111222' 
LUMCON,ioos:station:LUMCON:103:1,2006-11-06T18:00:00Z,30.1889,-90.1683,1.0,5.7,120.0,9.8,'11111222,11111222,11111222' 
LUMCON,ioos:station:LUMCON:103:1,2006-11-06T19:00:00Z,30.1889,-90.1683,1.0,5.7,110.0,8.8,'11111222,11111222,11111222' 
LUMCON,ioos:station:LUMCON:103:1,2006-11-06T20:00:00Z,30.1889,-90.1683,1.0,5.1,130.0,7.2,'11111222,11111222,11111222' 
LUMCON,ioos:station:LUMCON:103:1,2006-11-06T21:00:00Z,30.1889,-90.1683,1.0,7.7,240.0,99.0,'11111222,11111222,11144222' 
LUMCON,ioos:station:LUMCON:103:1,2006-11-06T22:00:00Z,30.1889,-90.1683,1.0,8.8,340.0,9.8,'11111222,11111222,11111222' 
LUMCON,ioos:station:LUMCON:103:1,2006-11-06T23:00:00Z,30.1889,-90.1683,1.0,6.7,20.0,9.8,'11111222,11111222,11111222' 
LUMCON,ioos:station:LUMCON:103:1,2006-11-07T00:00:00Z,30.1889,-90.1683,1.0,4.1,40.0,7.2,'11111222,11111222,11111222' 
LUMCON,ioos:station:LUMCON:103:1,2006-11-07T01:00:00Z,30.1889,-90.1683,1.0,3.6,60.0,4.6,'11111222,11111222,11111222' 
LUMCON,ioos:station:LUMCON:103:1,2006-11-07T02:00:00Z,30.1889,-90.1683,1.0,2.1,0.0,4.1,'11111222,11111222,11111222' 
LUMCON,ioos:station:LUMCON:103:1,2006-11-07T03:00:00Z,30.1889,-90.1683,1.0,2.1,120.0,5.1,'11111222,11111222,11111222' 
LUMCON,ioos:station:LUMCON:103:1,2006-11-07T04:00:00Z,30.1889,-90.1683,1.0,1.5,100.0,2.1,'11111222,11111222,11111222' 
LUMCON,ioos:station:LUMCON:103:1,2006-11-07T05:00:00Z,30.1889,-90.1683,1.0,2.1,350.0,3.6,'11111222,11111222,11111222' 
LUMCON,ioos:station:LUMCON:103:1,2006-11-07T06:00:00Z,30.1889,-90.1683,1.0,2.6,310.0,3.6,'11111222,11111222,11111222' 
LUMCON,ioos:station:LUMCON:103:1,2006-11-07T07:00:00Z,30.1889,-90.1683,1.0,3.6,310.0,4.6,'11111222,11111222,11111222' 
LUMCON,ioos:station:LUMCON:103:1,2006-11-07T08:00:00Z,30.1889,-90.1683,1.0,3.1,330.0,5.7,'11111222,11111222,11111222' 
LUMCON,ioos:station:LUMCON:103:1,2006-11-07T09:00:00Z,30.1889,-90.1683,1.0,4.1,310.0,7.2,'11111222,11111222,11111222' 
LUMCON,ioos:station:LUMCON:103:1,2006-11-07T10:00:00Z,30.1889,-90.1683,1.0,4.1,300.0,7.2,'11111222,11111222,11111222' 
LUMCON,ioos:station:LUMCON:103:1,2006-11-07T11:00:00Z,30.1889,-90.1683,1.0,3.1,310.0,5.7,'11111222,11111222,11111222' 
LUMCON,ioos:station:LUMCON:103:1,2006-11-07T12:00:00Z,30.1889,-90.1683,1.0,3.6,320.0,5.1,'11111222,11111222,11111222' 
LUMCON,ioos:station:LUMCON:103:1,2006-11-07T13:00:00Z,30.1889,-90.1683,1.0,3.6,310.0,5.7,'11111222,11111222,11111222' 
LUMCON,ioos:station:LUMCON:103:1,2006-11-07T14:00:00Z,30.1889,-90.1683,1.0,4.6,300.0,6.2,'11111222,11111222,11111222' 
LUMCON,ioos:station:LUMCON:103:1,2006-11-07T15:00:00Z,30.1889,-90.1683,1.0,5.1,310.0,6.7,'11111222,11111222,11111222' 
LUMCON,ioos:station:LUMCON:103:1,2006-11-07T16:00:00Z,30.1889,-90.1683,1.0,5.1,310.0,7.2,'11111222,11111222,11111222' 
LUMCON,ioos:station:LUMCON:103:1,2006-11-07T17:00:00Z,30.1889,-90.1683,1.0,5.1,310.0,7.2,'11111222,11111222,11111222' 
LUMCON,ioos:station:LUMCON:103:1,2006-11-07T18:00:00Z,30.1889,-90.1683,1.0,5.1,310.0,8.8,'11111222,11111222,11111222' 
LUMCON,ioos:station:LUMCON:103:1,2006-11-07T19:00:00Z,30.1889,-90.1683,1.0,5.1,320.0,8.2,'11111222,11111222,11111222' 
LUMCON,ioos:station:LUMCON:103:1,2006-11-07T20:00:00Z,30.1889,-90.1683,1.0,5.1,310.0,7.7,'11111222,11111222,11111222' 
LUMCON,ioos:station:LUMCON:103:1,2006-11-07T21:00:00Z,30.1889,-90.1683,1.0,4.6,310.0,7.2,'11111222,11111222,11111222' 
LUMCON,ioos:station:LUMCON:103:1,2006-11-07T22:00:00Z,30.1889,-90.1683,1.0,4.6,310.0,6.2,'11111222,11111222,11111222' 
LUMCON,ioos:station:LUMCON:103:1,2006-11-07T23:00:00Z,30.1889,-90.1683,1.0,3.6,300.0,6.2,'11111222,11111222,11111222' 
LUMCON,ioos:station:LUMCON:103:1,2006-11-08T00:00:00Z,30.1889,-90.1683,1.0,2.6,290.0,3.1,'11111222,11111222,11111222' 
LUMCON,ioos:station:LUMCON:103:1,2006-11-08T01:00:00Z,30.1889,-90.1683,1.0,3.6,310.0,4.6,'11111222,11111222,11111222' 
LUMCON,ioos:station:LUMCON:103:1,2006-11-08T02:00:00Z,30.1889,-90.1683,1.0,3.1,300.0,3.6,'11111222,11111222,11111222' 
LUMCON,ioos:station:LUMCON:103:1,2006-11-08T03:00:00Z,30.1889,-90.1683,1.0,2.6,300.0,3.6,'11111222,11111222,11111222' 
LUMCON,ioos:station:LUMCON:103:1,2006-11-08T04:00:00Z,30.1889,-90.1683,1.0,3.1,300.0,4.1,'11111222,11111222,11111222' 
LUMCON,ioos:station:LUMCON:103:1,2006-11-08T05:00:00Z,30.1889,-90.1683,1.0,2.6,300.0,3.6,'11111222,11111222,11111222' 
LUMCON,ioos:station:LUMCON:103:1,2006-11-08T06:00:00Z,30.1889,-90.1683,1.0,3.6,290.0,4.6,'11111222,11111222,11111222' 
LUMCON,ioos:station:LUMCON:103:1,2006-11-08T07:00:00Z,30.1889,-90.1683,1.0,2.1,310.0,3.1,'11111222,11111222,11111222' 
LUMCON,ioos:station:LUMCON:103:1,2006-11-08T08:00:00Z,30.1889,-90.1683,1.0,2.1,290.0,2.1,'11111222,11111222,11111222' 
LUMCON,ioos:station:LUMCON:103:1,2006-11-08T17:00:00Z,30.1889,-90.1683,1.0,3.1,240.0,4.1,'11111222,11111222,11111222' 
LUMCON,ioos:station:LUMCON:103:1,2006-11-08T18:00:00Z,30.1889,-90.1683,1.0,2.1,240.0,4.6,'11111222,11111222,11111222' 
LUMCON,ioos:station:LUMCON:103:1,2006-11-08T19:00:00Z,30.1889,-90.1683,1.0,3.1,250.0,5.1,'11111222,11111222,11111222' 
LUMCON,ioos:station:LUMCON:103:1,2006-11-08T20:00:00Z,30.1889,-90.1683,1.0,3.1,230.0,4.6,'11111222,11111222,11111222' 
LUMCON,ioos:station:LUMCON:103:1,2006-11-08T21:00:00Z,30.1889,-90.1683,1.0,3.1,230.0,5.1,'11111222,11111222,11111222' 
LUMCON,ioos:station:LUMCON:103:1,2006-11-08T22:00:00Z,30.1889,-90.1683,1.0,3.1,210.0,4.6,'11111222,11111222,11111222' 
LUMCON,ioos:station:LUMCON:103:1,2006-11-08T23:00:00Z,30.1889,-90.1683,1.0,3.1,210.0,4.1,'11111222,11111222,11111222' 
LUMCON,ioos:station:LUMCON:103:1,2006-11-09T00:00:00Z,30.1889,-90.1683,1.0,3.6,190.0,4.1,'11111222,11111222,11111222' 
LUMCON,ioos:station:LUMCON:103:1,2006-11-09T01:00:00Z,30.1889,-90.1683,1.0,2.6,200.0,3.6,'11111222,11111222,11111222' 
LUMCON,ioos:station:LUMCON:103:1,2006-11-09T02:00:00Z,30.1889,-90.1683,1.0,3.1,200.0,3.6,'11111222,11111222,11111222' 
LUMCON,ioos:station:LUMCON:103:1,2006-11-09T03:00:00Z,30.1889,-90.1683,1.0,4.1,210.0,5.7,'11111222,11111222,11111222' 
LUMCON,ioos:station:LUMCON:103:1,2006-11-09T04:00:00Z,30.1889,-90.1683,1.0,2.6,220.0,3.6,'11111222,11111222,11111222' 
LUMCON,ioos:station:LUMCON:103:1,2006-11-09T05:00:00Z,30.1889,-90.1683,1.0,2.6,210.0,3.6,'11111222,11111222,11111222' 
LUMCON,ioos:station:LUMCON:103:1,2006-11-09T06:00:00Z,30.1889,-90.1683,1.0,2.6,210.0,3.6,'11111222,11111222,11111222' 
LUMCON,ioos:station:LUMCON:103:1,2006-11-09T07:00:00Z,30.1889,-90.1683,1.0,2.6,210.0,3.6,'11111222,11111222,11111222' 
LUMCON,ioos:station:LUMCON:103:1,2006-11-09T08:00:00Z,30.1889,-90.1683,1.0,1.5,220.0,2.6,'11111222,11111222,11111222' 
LUMCON,ioos:station:LUMCON:103:1,2006-11-09T09:00:00Z,30.1889,-90.1683,1.0,1.5,210.0,2.1,'11111222,11111222,11111222' 
LUMCON,ioos:station:LUMCON:103:1,2006-11-09T10:00:00Z,30.1889,-90.1683,1.0,1.5,200.0,2.1,'11111222,11111222,11111222' 
LUMCON,ioos:station:LUMCON:103:1,2006-11-09T11:00:00Z,30.1889,-90.1683,1.0,1.5,190.0,1.5,'11111222,11111222,11111222' 
LUMCON,ioos:station:LUMCON:103:1,2006-11-09T12:00:00Z,30.1889,-90.1683,1.0,1.0,170.0,1.5,'11111222,11111222,11111222' 
LUMCON,ioos:station:LUMCON:103:1,2006-11-09T13:00:00Z,30.1889,-90.1683,1.0,1.0,100.0,1.5,'11111222,11111222,11111222' 
LUMCON,ioos:station:LUMCON:103:1,2006-11-09T14:00:00Z,30.1889,-90.1683,1.0,1.5,130.0,2.1,'11111222,11111222,11111222' 
LUMCON,ioos:station:LUMCON:103:1,2006-11-09T15:00:00Z,30.1889,-90.1683,1.0,1.5,120.0,3.1,'11111222,11111222,11111222' 
LUMCON,ioos:station:LUMCON:103:1,2006-11-09T16:00:00Z,30.1889,-90.1683,1.0,2.1,120.0,3.6,'11111222,11111222,11111222' 
LUMCON,ioos:station:LUMCON:103:1,2006-11-09T17:00:00Z,30.1889,-90.1683,1.0,3.1,120.0,4.6,'11111222,11111222,11111222' 
LUMCON,ioos:station:LUMCON:103:1,2006-11-09T18:00:00Z,30.1889,-90.1683,1.0,3.6,140.0,6.2,'11111222,11111222,11111222' 
LUMCON,ioos:station:LUMCON:103:1,2006-11-09T19:00:00Z,30.1889,-90.1683,1.0,3.6,130.0,5.1,'11111222,11111222,11111222' 
LUMCON,ioos:station:LUMCON:103:1,2006-11-09T20:00:00Z,30.1889,-90.1683,1.0,3.6,120.0,5.7,'11111222,11111222,11111222' 
LUMCON,ioos:station:LUMCON:103:1,2006-11-09T21:00:00Z,30.1889,-90.1683,1.0,3.6,110.0,4.1,'11111222,11111222,11111222' 
LUMCON,ioos:station:LUMCON:103:1,2006-11-09T22:00:00Z,30.1889,-90.1683,1.0,3.6,110.0,5.7,'11111222,11111222,11111222' 
LUMCON,ioos:station:LUMCON:103:1,2006-11-09T23:00:00Z,30.1889,-90.1683,1.0,4.1,110.0,5.1,'11111222,11111222,11111222' 
LUMCON,ioos:station:LUMCON:103:1,2006-11-10T00:00:00Z,30.1889,-90.1683,1.0,4.6,150.0,6.2,'11111222,11111222,11111222' 
LUMCON,ioos:station:LUMCON:103:1,2006-11-10T01:00:00Z,30.1889,-90.1683,1.0,4.6,140.0,6.2,'11111222,11111222,11111222' 
LUMCON,ioos:station:LUMCON:103:1,2006-11-10T02:00:00Z,30.1889,-90.1683,1.0,3.6,140.0,5.1,'11111222,11111222,11111222' 
LUMCON,ioos:station:LUMCON:103:1,2006-11-10T03:00:00Z,30.1889,-90.1683,1.0,4.1,150.0,5.7,'11111222,11111222,11111222' 
LUMCON,ioos:station:LUMCON:103:1,2006-11-10T04:00:00Z,30.1889,-90.1683,1.0,4.6,140.0,5.7,'11111222,11111222,11111222' 
LUMCON,ioos:station:LUMCON:103:1,2006-11-10T05:00:00Z,30.1889,-90.1683,1.0,4.6,140.0,5.1,'11111222,11111222,11111222' 
LUMCON,ioos:station:LUMCON:103:1,2006-11-10T06:00:00Z,30.1889,-90.1683,1.0,4.1,140.0,5.1,'11111222,11111222,11111222' 
LUMCON,ioos:station:LUMCON:103:1,2006-11-10T21:00:00Z,30.1889,-90.1683,1.0,4.1,110.0,4.6,'11111222,11111222,11111222' 
LUMCON,ioos:station:LUMCON:103:1,2006-11-10T22:00:00Z,30.1889,-90.1683,1.0,3.1,110.0,4.1,'11111222,11111222,11111222' 
LUMCON,ioos:station:LUMCON:103:1,2006-11-11T10:00:00Z,30.1889,-90.1683,1.0,2.1,260.0,4.1,'11111222,11111222,11111222' 